Volver al catálogo

APSTAR 6

ActivoComunicacionesGEO
NORAD 28638·PAYLOAD·🇨🇳 China

Lanzado Apr 12, 2005 desde Xichang Satellite Launch Center

Loading…

TLE

ActualizadoSource: Space-Track

Época: Sep 14, 2026, 13:09 UTC

1 28638U 05012A   26257.54853520 -.00000120  00000-0  00000-0 0  9993
2 28638   7.5862  68.1616 0005881 309.0830   8.8737  0.98572649102916

Sigue APSTAR 6 en tiempo real con AllMySat

Download on the App Store